Theta_e
337 338 339 340 341 343 344 345 346 347 348 348 348 347 347 348 349 350 353 353 353 351 353 351 350 350 350 351 351 352 352 353 354 353 354 355 357 359 360 360 361 360 361 360 359 362 357 356 355 355 355 352 349 347 347 347 347 348 347 348 341 336 335 339 338 334 330 331 331 332 336 339 352 348 339 338 336 335 339 337 339 341 341 344 344
336 336 338 339 340 342 342 343 346 344 346 347 347 347 347 348 348 350 353 352 352 351 353 352 351 351 350 350 350 352 351 352 351 353 353 355 357 359 361 360 360 360 361 360 360 360 356 356 355 354 354 352 350 350 348 352 350 347 344 339 340 333 331 336 339 336 330 327 326 328 332 332 341 341 339 337 335 332 332 332 333 335 338 341 343
334 335 336 339 340 341 341 342 344 345 346 346 347 347 347 347 348 350 352 352 352 351 354 352 352 352 350 348 350 350 353 354 353 355 356 355 356 359 361 360 360 360 360 361 360 359 357 355 354 354 353 354 350 348 348 347 347 346 342 336 334 336 336 340 335 333 328 333 332 327 323 324 333 331 337 341 334 330 330 329 332 334 339 340 341
332 334 335 338 339 340 340 341 343 345 345 345 347 346 347 348 347 349 351 352 352 351 354 353 353 352 351 350 350 351 350 354 354 355 354 357 356 359 361 361 360 360 361 361 360 360 357 354 353 353 353 354 350 348 346 345 344 340 338 338 332 330 331 332 339 334 333 330 324 324 324 325 322 321 328 333 336 329 329 328 332 335 336 336 336
332 333 335 337 337 339 340 341 342 343 344 344 346 346 347 348 347 349 351 352 352 352 353 353 354 351 351 351 351 350 352 352 350 350 353 355 358 357 359 361 361 360 361 362 361 359 356 354 353 352 352 353 350 347 345 344 342 340 338 337 331 331 330 333 338 338 333 333 332 326 323 321 320 325 329 328 333 326 327 328 334 330 330 333 334
333 333 334 336 338 339 340 340 341 342 344 345 347 347 347 348 348 350 350 352 352 352 352 353 352 350 348 347 345 345 345 346 346 347 350 351 356 358 360 361 360 360 361 362 362 359 356 354 353 352 351 352 349 346 344 342 338 334 338 337 333 333 332 330 332 341 339 342 334 330 325 322 321 325 322 320 330 332 328 328 331 327 330 332 331
334 335 335 336 338 338 339 340 341 341 344 346 347 348 347 348 349 349 351 352 353 353 352 354 352 351 349 348 347 345 345 346 348 350 351 352 356 359 359 361 360 360 360 361 359 360 357 354 353 352 352 351 351 345 342 342 339 336 339 334 335 342 333 329 331 333 331 333 337 335 340 337 330 325 320 322 318 322 328 326 325 328 328 327 330
333 334 335 336 337 339 338 340 341 342 344 346 347 348 347 347 349 349 351 353 353 354 352 353 351 350 349 348 348 346 346 347 349 350 352 354 356 359 359 360 361 360 359 358 358 360 357 354 352 352 351 349 349 345 343 342 339 339 341 339 340 337 334 332 330 331 327 329 340 332 336 336 332 332 328 321 320 318 319 324 327 327 328 327 329
333 333 334 335 336 338 340 340 342 343 344 345 347 348 348 348 349 350 350 353 353 354 353 353 353 352 350 349 348 348 347 348 351 352 352 355 354 358 358 358 359 359 359 357 357 358 359 355 351 350 348 347 352 345 342 339 338 339 339 338 337 335 334 334 333 331 330 330 330 328 329 329 329 330 333 328 324 317 318 320 321 324 325 326 327
332 334 335 336 337 339 341 342 342 343 345 347 348 349 349 349 348 350 349 352 354 354 354 353 353 353 350 349 348 348 348 349 351 350 352 354 352 356 357 356 357 357 357 357 356 357 357 355 351 349 347 346 350 342 339 339 339 340 339 337 336 335 338 336 333 332 332 332 331 329 329 326 324 323 325 325 323 319 316 316 319 318 319 322 327
330 333 335 336 338 338 340 341 342 343 344 346 347 348 349 349 349 349 350 351 353 354 354 353 353 353 351 350 349 349 348 349 350 350 351 352 351 354 355 355 355 355 355 355 355 355 354 354 351 348 347 348 349 342 338 339 339 339 339 338 336 334 335 336 340 334 335 336 333 329 329 326 323 321 321 324 322 320 318 320 321 322 319 320 325
330 332 334 336 336 337 339 340 341 343 344 344 346 347 349 349 349 349 350 351 352 354 354 353 353 353 352 351 350 350 350 350 350 349 350 351 351 352 354 354 353 354 353 352 352 353 352 351 351 348 347 345 345 342 339 339 339 339 338 338 335 334 336 338 336 335 335 333 334 332 331 332 329 326 325 323 323 321 319 318 319 323 323 323 330
328 330 333 335 335 335 336 338 341 342 343 344 345 346 348 349 349 349 349 352 351 353 353 353 353 352 352 351 351 352 352 351 351 350 351 351 351 350 351 352 351 350 351 350 350 351 351 348 348 346 346 345 344 341 340 339 339 338 338 337 337 335 335 335 332 334 333 330 330 332 332 332 330 329 329 324 322 322 319 318 321 322 319 323 327
327 329 331 333 335 336 336 338 341 342 343 344 345 346 348 349 350 349 350 352 353 352 353 353 353 353 353 352 352 352 352 352 352 351 352 351 351 350 351 352 350 350 351 349 350 350 350 349 348 346 346 345 344 340 341 339 339 338 338 336 337 337 335 334 332 333 332 332 331 331 331 329 329 331 329 329 326 323 320 321 323 324 322 322 324
328 328 329 331 334 336 336 337 340 342 343 344 344 346 347 349 350 350 350 352 353 352 352 352 354 354 354 354 353 353 353 353 353 353 353 351 350 351 351 351 350 349 350 350 350 349 349 348 347 346 345 344 344 341 341 339 339 339 339 337 337 337 336 336 332 333 335 334 333 331 331 330 331 331 330 330 329 325 324 324 324 320 320 321 323
328 328 329 330 333 335 336 337 340 342 343 344 344 345 346 348 350 350 350 351 353 354 353 352 353 354 355 354 354 355 355 355 354 353 353 353 350 351 351 351 351 349 350 349 349 349 348 348 348 346 344 345 343 340 338 339 338 337 337 337 336 339 336 335 334 333 333 334 334 332 332 330 332 332 333 331 331 330 330 328 325 323 319 316 320
328 329 329 330 331 334 336 337 339 342 343 344 344 345 346 348 350 350 351 352 353 354 354 353 353 353 354 355 355 355 355 354 353 352 353 353 351 352 351 351 351 350 350 350 348 348 348 347 347 346 344 344 343 341 337 338 338 338 338 335 335 337 336 335 334 333 333 334 333 332 332 331 331 332 333 333 332 332 331 329 327 324 322 318 316
329 330 330 331 331 333 336 337 339 342 343 344 345 346 347 349 350 350 351 351 352 353 354 354 353 352 353 354 355 355 355 355 355 353 353 352 351 352 352 350 350 350 351 351 349 348 348 351 346 347 346 344 343 340 338 337 337 337 338 336 336 337 335 336 335 334 332 332 334 334 333 331 332 334 333 333 332 331 330 330 329 328 326 321 319
328 329 330 331 331 332 335 336 339 342 344 345 346 346 347 349 351 352 351 352 353 354 354 355 355 354 354 354 354 355 355 356 356 355 354 352 350 351 351 351 351 351 350 350 348 347 347 348 346 346 346 344 342 340 338 337 337 336 337 336 336 336 334 334 335 335 333 333 333 332 332 331 333 334 332 333 333 332 331 330 330 330 328 325 323
328 329 330 331 332 333 334 336 338 340 343 345 346 346 347 348 350 352 353 353 353 353 354 354 355 355 355 355 355 355 356 356 356 355 353 353 352 351 352 351 351 352 351 350 349 347 347 347 347 345 346 344 342 340 338 337 336 335 336 336 335 335 334 333 333 335 335 333 332 332 333 332 333 333 332 332 331 333 332 331 331 331 328 328 327
328 329 330 331 333 334 334 336 338 341 344 345 346 346 347 348 349 352 352 352 353 354 354 354 355 355 355 354 355 355 355 356 356 356 354 353 353 352 352 353 352 351 351 350 348 348 347 347 347 345 345 344 342 340 338 338 336 335 335 335 335 335 334 333 333 333 334 333 333 332 333 333 333 332 331 331 331 334 332 332 333 329 329 328 328
329 329 330 332 333 335 335 336 339 340 343 344 346 346 346 347 349 351 352 353 353 353 354 354 355 355 355 355 355 356 356 356 355 355 354 354 354 353 352 353 352 352 351 351 348 348 348 347 346 345 344 343 342 340 338 338 337 335 335 336 335 334 333 333 333 332 332 333 333 332 332 332 331 331 330 330 330 332 331 330 330 331 329 331 331
329 330 330 331 333 335 336 336 338 339 342 344 345 345 346 347 349 351 351 352 354 354 355 355 355 354 355 356 356 356 356 356 355 355 355 354 354 354 354 353 353 352 352 351 350 347 347 347 346 345 344 343 342 340 339 337 337 336 335 336 336 334 333 332 332 333 332 332 332 332 331 331 332 330 330 330 329 330 330 329 330 332 330 330 331
330 331 331 331 332 334 337 336 338 340 341 343 344 345 346 347 348 350 351 352 353 354 355 355 355 355 355 355 355 356 356 356 355 355 355 355 354 354 354 353 353 353 352 351 351 349 347 347 346 345 344 343 342 341 339 338 337 337 335 336 335 334 334 333 332 333 333 333 332 331 330 330 331 331 330 330 329 330 330 330 330 332 331 330 330
328 330 331 331 331 332 335 337 338 340 342 343 344 345 345 346 348 350 351 352 354 355 355 355 355 354 355 355 355 356 355 356 355 355 355 355 355 354 354 354 353 352 352 352 351 350 347 346 346 345 344 343 342 341 339 338 338 338 337 336 336 335 334 334 333 333 336 333 333 332 331 331 330 330 330 330 329 328 329 329 329 331 331 330 331
328 329 329 329 331 333 334 336 338 340 342 343 344 345 345 346 348 350 351 352 353 355 355 355 355 354 354 354 355 355 355 355 356 355 355 355 356 354 354 354 353 352 352 352 351 350 349 346 346 345 344 343 343 342 340 339 338 338 337 336 336 335 335 334 334 333 333 333 333 332 331 331 330 330 329 330 330 330 330 331 331 331 331 330 329
328 329 329 329 331 333 334 335 337 339 342 343 344 344 345 346 347 350 352 352 353 354 355 355 355 355 354 354 355 355 356 356 356 356 356 355 355 355 354 353 354 353 352 351 351 350 349 348 346 346 345 344 343 342 341 339 338 337 337 336 336 335 335 335 334 334 334 333 332 332 330 330 330 331 331 331 332 331 332 331 332 331 331 330 329
328 328 327 329 331 333 334 335 336 338 341 343 344 345 345 345 346 349 351 353 354 354 354 354 354 354 354 354 355 356 356 356 356 356 356 355 355 355 354 354 354 353 352 352 351 350 350 349 348 347 346 344 343 341 340 340 339 338 337 336 336 336 335 335 335 334 334 333 333 332 332 331 331 332 332 333 333 332 333 332 333 332 331 330 329
326 327 327 329 332 333 334 336 337 338 340 342 344 344 345 346 347 348 351 352 354 354 354 354 354 354 354 355 356 356 356 356 356 356 355 355 354 354 354 354 353 353 353 353 352 351 350 349 348 347 346 345 343 342 341 340 339 338 337 336 336 336 335 334 334 335 334 334 333 333 333 333 335 340 340 339 338 337 333 331 331 332 331 330 328
325 326 327 329 332 334 334 335 337 338 339 342 343 344 345 345 346 348 349 352 353 353 353 353 353 354 354 355 355 356 356 356 356 355 355 355 354 354 353 353 352 352 352 352 351 351 350 349 348 347 346 345 344 343 337 328 332 339 338 337 337 336 335 334 334 333 333 333 334 334 336 341 341 345 345 344 341 342 340 336 332 332 333 330 328
326 327 327 329 332 334 334 335 337 339 340 342 343 344 345 345 346 347 348 350 352 352 353 353 353 354 355 355 355 355 355 355 355 355 355 355 354 353 352 352 352 352 351 351 350 349 349 349 349 348 346 346 345 343 329 326 329 331 337 338 337 336 335 334 334 333 333 333 334 335 336 342 341 344 342 343 341 339 338 337 335 335 335 331 327
327 327 328 328 330 332 334 336 338 340 341 342 343 344 345 345 346 346 347 350 350 351 351 352 353 354 355 354 354 354 354 354 355 354 355 355 354 353 352 351 350 350 351 351 350 348 348 349 349 349 348 347 346 333 326 326 327 328 332 339 338 337 335 333 333 333 334 334 334 335 335 337 335 336 336 339 338 336 333 334 333 332 332 334 333
327 327 328 329 331 333 335 337 338 340 342 344 345 344 344 345 345 346 347 348 349 350 350 351 353 354 354 355 354 354 354 354 354 355 355 354 353 352 351 350 349 350 351 350 350 349 348 349 349 348 348 348 347 332 325 324 326 326 329 334 339 337 334 333 333 334 333 333 333 333 332 334 335 342 339 333 333 334 332 331 332 333 333 331 329
328 329 330 331 333 334 336 338 339 340 343 345 347 346 346 347 347 347 346 347 348 349 350 350 352 353 354 355 354 354 353 353 354 354 354 354 353 352 351 351 350 350 350 350 350 349 350 350 350 349 348 348 347 329 323 322 324 325 327 332 340 338 336 335 335 335 334 334 333 332 332 332 334 338 335 333 333 332 332 331 331 330 330 333 332
330 330 332 332 333 334 336 337 339 341 342 344 346 347 347 347 347 346 346 346 347 348 349 350 351 352 353 354 354 353 353 353 353 354 354 353 353 352 351 351 350 349 350 350 350 349 350 350 350 350 349 348 348 323 321 321 321 322 325 330 339 338 337 336 336 336 335 334 334 333 333 333 334 336 334 334 333 332 331 330 328 329 330 330 330
331 332 333 333 333 334 335 336 341 343 343 343 344 347 347 347 347 346 345 345 346 346 348 350 350 351 352 353 353 353 352 352 352 353 353 353 353 352 351 351 350 350 351 352 351 351 350 350 350 350 348 346 343 319 320 320 320 321 324 333 337 337 337 336 336 336 335 334 333 333 333 333 334 334 334 333 335 332 330 328 327 327 327 327 328
333 333 333 335 336 336 337 339 341 343 344 344 345 346 347 347 346 346 345 345 345 344 346 348 350 351 352 353 354 353 352 352 352 352 352 352 353 352 352 352 350 350 351 351 351 351 351 350 349 347 346 343 334 321 319 318 319 319 322 335 337 337 337 336 335 335 334 334 334 333 333 333 332 331 331 324 329 338 327 325 324 324 325 325 328
329 333 337 339 339 339 340 342 344 345 347 347 346 346 346 346 346 346 345 344 344 343 344 346 348 350 351 352 353 353 353 352 352 351 351 352 353 353 353 353 351 350 350 351 351 349 348 348 347 345 344 339 337 323 316 315 316 316 325 335 336 336 335 335 334 334 334 333 335 339 336 332 331 331 326 322 325 334 327 325 323 325 324 324 326
324 331 335 337 340 342 342 345 348 348 348 349 349 347 345 345 345 345 345 344 343 343 343 344 346 348 349 351 353 354 354 353 352 352 353 352 353 353 353 353 353 352 350 349 348 347 345 345 345 343 333 338 338 326 313 315 315 315 327 337 336 335 333 333 332 331 333 334 335 339 338 335 332 331 322 321 322 330 327 325 324 321 323 323 325
340 336 331 338 342 343 342 343 345 349 351 351 350 348 346 345 345 346 344 343 343 344 344 344 345 346 348 350 352 353 354 354 354 354 354 354 355 354 353 352 351 350 348 348 346 345 344 342 341 339 338 339 336 329 320 313 313 314 322 336 335 333 331 331 332 332 331 333 334 335 335 326 324 322 317 314 315 320 326 325 322 324 323 324 319
339 342 343 339 341 343 343 343 345 348 351 352 352 350 347 346 345 345 344 344 345 345 345 344 344 344 346 348 351 353 353 355 356 356 356 355 355 354 352 350 348 347 346 345 344 343 341 338 337 335 334 332 332 327 320 310 310 313 319 325 334 334 333 332 331 331 331 331 332 332 333 324 318 316 313 310 309 313 323 325 324 324 324 321 315
341 342 339 341 344 343 343 344 345 346 348 349 350 349 348 347 346 345 345 347 346 345 344 343 343 343 344 348 350 353 355 356 357 357 355 354 354 354 351 348 346 344 343 341 339 337 335 333 332 332 332 330 326 323 320 311 312 313 316 321 331 333 333 332 330 330 329 330 330 331 331 325 316 314 312 309 307 310 317 325 323 317 315 313 316
338 336 337 340 340 343 346 346 348 350 349 349 349 348 348 348 347 347 349 348 347 345 343 342 342 343 345 348 352 354 355 358 357 356 355 353 352 349 346 344 343 341 339 337 335 334 332 331 330 329 329 328 326 324 317 319 312 312 313 317 321 326 323 332 330 328 328 328 329 329 330 322 314 310 307 307 307 309 316 319 314 309 309 310 318
337 337 337 339 338 338 339 341 344 346 348 349 348 345 344 344 346 350 350 350 348 347 344 343 344 346 348 352 355 356 357 357 356 355 354 351 348 345 343 342 341 339 336 333 332 332 332 331 329 327 326 325 324 323 318 317 317 313 312 313 314 317 320 328 329 327 326 327 327 327 325 315 308 304 304 306 308 311 318 309 308 307 309 312 315
334 335 337 337 338 337 339 341 342 344 344 344 344 343 342 344 345 350 351 352 352 352 349 348 349 351 353 355 356 357 356 355 354 353 350 347 344 342 339 338 338 335 334 331 330 331 331 330 328 326 324 323 323 323 322 320 316 313 312 311 313 315 317 318 326 325 329 326 321 315 310 307 306 303 304 307 307 308 308 309 307 308 314 313 312
335 335 335 334 337 338 338 339 338 340 341 342 343 343 339 338 343 349 354 356 356 354 353 352 353 354 355 356 355 354 353 352 351 350 347 345 342 339 336 335 333 332 331 330 329 329 328 327 326 325 324 323 323 323 322 321 320 317 316 313 315 317 322 324 325 322 318 316 311 308 307 307 307 308 312 315 317 317 310 311 309 309 311 311 310
332 334 334 332 333 333 333 334 334 337 340 340 340 341 341 340 342 348 352 353 351 352 351 353 353 354 354 354 352 350 346 342 340 339 339 338 336 335 334 332 331 330 330 329 328 327 327 326 326 325 325 324 323 322 322 321 320 319 319 317 317 320 319 318 318 315 314 314 312 314 314 312 312 312 316 316 316 317 313 309 310 311 310 310 310
333 335 334 332 332 331 331 332 333 336 338 340 340 340 340 341 345 352 354 350 346 345 346 346 347 347 345 344 341 341 338 337 337 337 336 335 334 333 333 332 331 331 330 329 328 328 327 327 326 326 326 325 323 322 321 321 319 319 318 316 318 321 320 320 315 314 316 318 317 314 311 315 314 313 311 312 311 313 314 311 309 309 310 312 314
333 334 335 333 332 331 331 333 333 335 338 339 339 340 341 340 342 344 344 340 337 335 337 338 338 338 337 337 337 336 336 334 332 327 324 329 334 335 331 326 326 332 333 331 330 329 329 329 328 327 327 326 325 323 323 316 321 315 318 317 318 320 319 319 318 313 318 317 315 314 314 313 312 313 312 311 309 310 313 313 313 311 310 310 311
333 336 335 333 332 331 331 332 333 336 337 337 337 338 340 341 341 341 341 338 338 338 337 336 336 336 336 335 334 333 330 326 323 320 317 312 305 300 312 328 325 316 318 321 319 330 331 330 329 329 330 328 327 327 315 309 307 305 305 308 310 310 310 316 312 312 318 314 314 313 314 313 312 311 310 310 311 310 311 311 312 315 314 312 312
333 334 334 334 332 333 333 332 334 336 337 337 337 338 339 340 339 340 340 338 338 337 336 336 336 334 333 332 330 329 328 327 327 324 321 318 315 309 296 296 302 305 307 310 312 312 316 321 329 329 322 319 319 311 306 305 303 303 303 303 303 303 304 303 305 317 317 315 313 313 313 312 313 312 311 312 312 311 312 311 312 311 312 313 313
Wind_Speed
15 16 17 17 16 14 14 13 13 14 14 16 16 16 15 14 13 13 12 13 11 10 8 9 9 8 7 9 9 7 7 7 7 6 7 7 7 6 7 6 6 6 5 6 6 5 5 5 6 5 5 5 5 6 5 5 4 4 4 2 2 1 1 1 1 2 1 1 1 2 3 1 0 1 0 3 2 3 6 5 4 4 3 3 3
14 13 14 16 15 16 14 13 14 16 15 16 18 17 15 14 15 14 12 13 13 12 10 9 9 10 10 9 7 7 7 8 7 6 6 6 7 7 7 7 7 7 6 6 6 5 5 5 6 6 5 5 5 5 4 4 3 3 3 2 0 3 2 3 3 3 1 2 1 1 4 3 1 1 2 3 3 5 5 5 4 5 5 4 3
15 16 16 16 18 18 15 14 16 19 17 17 16 15 16 15 14 14 13 13 13 13 11 10 9 8 9 7 8 5 5 6 6 5 5 6 7 8 7 7 7 6 7 6 6 5 6 6 6 6 6 6 5 5 4 4 4 4 4 4 1 0 1 1 3 3 3 1 1 3 1 1 3 4 2 3 3 6 5 4 4 5 6 5 5
17 18 17 17 18 17 15 15 15 15 16 15 16 17 15 14 14 14 14 14 12 13 12 10 10 7 6 6 5 6 6 4 5 4 4 5 7 7 7 7 8 7 7 7 6 6 6 6 6 6 7 6 7 6 5 5 4 3 3 3 4 1 1 1 2 4 3 4 1 0 1 2 1 1 1 2 1 5 7 3 4 6 5 3 3
19 19 17 17 18 18 19 17 15 15 16 17 17 17 13 17 16 16 14 14 13 13 13 10 9 6 5 4 4 3 2 4 4 6 6 6 6 7 8 8 8 7 7 8 7 7 6 6 7 7 7 6 6 6 6 6 5 4 5 3 3 4 1 0 0 1 4 2 5 2 2 1 2 2 1 2 2 5 4 4 4 6 6 6 5
22 22 21 20 20 18 17 17 16 15 17 17 18 18 16 14 14 14 12 13 14 14 14 11 11 10 8 8 8 8 7 7 10 10 8 7 8 7 6 8 8 7 7 7 7 7 7 7 7 7 6 6 6 6 5 3 3 4 5 5 4 2 4 2 1 0 0 0 3 4 5 3 3 1 2 1 4 2 2 1 3 5 5 6 5
18 20 21 19 20 20 18 18 19 18 17 16 16 16 17 15 14 14 13 12 13 14 14 12 11 11 13 12 11 11 11 8 6 7 8 6 6 8 7 7 7 8 7 7 7 7 7 7 7 7 6 6 5 5 4 5 5 5 3 4 5 4 4 3 5 2 1 1 1 0 0 1 4 3 1 2 3 1 1 1 1 1 3 5 5
19 19 20 21 21 22 22 21 19 20 18 16 16 15 17 16 16 15 13 13 13 13 15 14 13 12 12 12 10 10 11 10 9 9 7 6 7 8 7 7 7 7 8 7 8 7 7 7 7 6 6 6 5 6 6 5 4 2 4 5 4 5 5 6 3 4 5 2 0 1 1 2 2 1 3 4 5 5 2 2 1 1 2 3 4
20 19 21 21 20 21 21 21 21 20 17 16 15 16 16 16 16 14 13 13 12 15 16 15 13 13 13 11 11 10 10 8 7 6 7 6 7 7 8 7 7 7 8 8 8 8 8 7 7 6 6 6 5 6 5 5 6 6 5 5 5 5 5 4 5 4 4 5 2 1 1 0 0 2 2 3 2 3 1 2 2 2 1 1 3
20 22 22 22 22 22 22 23 21 19 18 18 18 16 15 14 15 16 15 13 13 15 16 16 14 13 12 12 13 11 9 6 6 8 8 7 8 8 7 7 7 7 7 8 8 8 8 7 7 7 7 6 6 6 5 5 6 7 7 7 6 6 4 6 6 5 5 3 5 5 2 1 1 1 1 2 3 2 5 3 3 5 4 4 3
18 19 20 22 22 22 20 20 21 20 17 18 17 17 16 16 16 17 17 13 14 16 16 16 14 13 13 14 14 13 12 9 8 8 8 7 8 8 8 8 8 8 7 7 8 8 7 7 8 8 7 7 6 5 5 7 7 8 8 6 6 7 6 5 4 4 3 3 3 6 5 5 5 3 3 2 2 2 3 2 1 2 5 4 6
19 19 19 20 18 18 17 19 19 19 17 17 17 16 17 17 17 18 17 16 14 15 15 15 14 13 13 14 14 13 13 11 11 11 11 11 10 9 8 7 8 8 7 7 8 8 7 7 8 8 7 7 7 6 6 6 7 7 7 7 6 6 5 6 5 4 4 4 4 4 5 4 4 4 6 6 5 4 7 5 4 1 1 2 1
20 19 18 18 18 19 18 19 18 18 17 19 19 18 17 17 19 20 19 18 17 16 17 16 15 14 14 14 14 12 12 12 12 11 10 10 9 9 9 9 8 8 8 9 9 10 8 8 8 9 8 8 8 6 6 7 7 7 7 6 6 6 6 6 6 6 6 5 6 5 5 4 5 4 4 5 4 5 7 5 4 1 3 2 2
20 20 19 19 19 19 21 20 19 18 20 20 19 18 16 16 19 20 20 18 16 17 17 16 16 15 14 13 13 12 12 12 11 11 10 9 9 10 11 11 10 11 11 10 10 10 9 9 9 9 9 8 8 7 7 7 7 7 6 6 6 7 5 6 6 6 5 6 5 5 4 6 5 5 6 6 5 5 5 7 4 1 1 3 1
19 19 19 19 20 21 20 19 19 19 20 20 18 18 17 17 18 20 19 18 18 18 16 17 15 15 14 13 13 11 12 11 11 10 10 10 8 10 11 10 10 10 11 10 9 10 10 9 9 9 8 9 9 8 7 7 7 7 7 7 7 6 7 6 6 6 6 5 4 5 5 5 5 5 6 7 6 6 6 6 7 5 0 1 0
19 19 20 20 21 21 19 18 19 19 20 19 19 18 18 18 19 21 21 20 19 18 17 17 16 14 14 14 14 13 11 10 9 9 10 10 10 11 11 11 10 10 9 8 9 10 10 10 10 10 9 9 9 8 7 7 7 8 7 7 7 5 7 7 7 6 6 5 5 4 4 5 5 4 4 5 6 6 5 6 6 7 7 3 1
18 19 18 20 19 19 19 20 19 19 19 20 21 20 21 19 18 19 18 18 18 18 17 16 16 15 15 15 14 13 13 13 12 12 12 10 11 11 11 11 10 9 9 9 10 10 10 11 10 10 9 9 8 8 8 7 8 8 7 7 7 6 6 7 6 6 6 5 5 5 6 6 6 4 4 4 5 4 5 6 6 7 6 5 3
21 21 21 22 21 21 20 19 21 21 22 22 22 20 19 19 20 20 19 19 18 18 17 16 17 16 15 16 15 15 14 13 12 12 11 10 10 10 9 9 10 10 9 9 10 11 10 11 10 10 10 9 9 8 7 7 8 8 8 8 8 7 7 6 6 6 6 5 5 4 5 6 5 4 6 4 5 6 6 6 6 5 6 7 5
18 19 19 18 18 19 20 21 21 22 22 22 21 19 17 17 18 20 22 22 22 18 17 15 16 14 14 16 16 15 13 12 12 11 10 12 13 12 11 11 10 10 10 10 10 10 10 11 10 10 10 10 9 8 8 8 8 8 8 8 7 7 8 7 7 6 6 5 6 6 5 6 5 5 5 5 5 5 6 5 5 5 5 5 6
17 18 19 19 20 22 22 21 21 20 19 18 19 18 20 20 19 19 19 18 18 19 17 17 16 15 15 14 15 14 14 13 12 12 12 13 13 13 12 11 12 11 11 11 11 12 12 12 11 11 11 10 10 9 9 9 8 8 8 8 8 8 8 8 7 6 6 6 6 6 6 6 4 4 5 5 5 5 5 5 5 5 4 4 5
18 19 18 19 20 20 19 20 20 20 18 18 18 20 20 19 19 20 21 20 20 20 19 17 16 17 17 17 17 15 15 13 13 13 13 13 12 12 12 12 10 12 11 12 12 13 13 12 12 11 12 11 11 11 9 9 9 8 8 8 7 8 9 8 7 8 7 7 7 7 6 5 4 5 6 5 5 5 4 4 4 4 4 3 4
19 19 18 19 18 17 18 18 15 15 16 18 19 19 19 20 19 20 19 19 21 20 18 17 16 17 19 18 18 15 14 13 14 13 14 13 13 12 12 11 13 13 12 13 13 12 12 13 13 12 12 12 12 12 11 9 10 10 9 8 8 9 9 9 8 9 9 7 6 6 6 5 3 4 4 4 5 4 5 5 4 6 6 5 4
19 19 19 18 17 18 17 18 18 19 20 21 19 19 20 21 20 19 20 21 20 20 18 17 17 18 19 18 17 15 14 15 16 14 15 15 13 12 12 13 13 12 12 13 13 12 12 13 13 13 12 12 12 12 11 11 11 11 11 10 9 10 10 10 10 11 10 7 6 6 7 5 3 3 4 4 3 4 5 6 5 5 5 6 5
19 19 18 17 17 15 12 14 15 15 15 17 18 19 18 18 19 18 20 20 19 18 17 17 17 18 19 18 17 16 16 16 16 15 16 16 14 12 12 13 13 12 13 12 12 13 12 13 13 13 13 13 12 12 11 12 13 13 12 12 11 11 10 11 11 10 9 7 8 7 6 5 4 5 5 4 3 4 5 5 5 5 5 6 5
19 19 19 16 13 12 14 17 17 17 17 18 18 18 17 18 18 18 19 19 18 16 17 18 18 19 18 18 18 16 17 17 17 15 17 16 15 13 12 14 13 13 13 12 12 12 13 13 14 15 14 13 13 13 13 13 12 12 12 12 11 10 11 11 12 9 6 7 8 8 5 5 5 6 5 4 3 4 4 4 5 4 5 5 4
18 18 14 12 12 14 14 14 14 15 16 17 17 18 18 18 19 18 16 16 17 16 17 18 17 18 18 19 18 17 18 19 18 17 18 17 15 14 14 13 14 14 13 13 13 13 13 14 14 13 14 14 13 13 14 13 13 11 10 10 10 10 11 11 9 6 7 7 7 6 6 6 6 7 6 4 4 5 4 4 4 4 4 3 4
17 16 13 10 9 14 16 16 16 16 16 16 17 18 18 17 17 17 16 17 17 17 17 18 18 19 17 18 18 18 18 18 18 18 16 15 16 16 15 15 14 14 14 14 14 14 13 13 14 13 14 14 13 13 12 12 11 10 10 11 11 11 11 9 7 8 8 8 7 7 6 6 7 6 6 6 6 5 5 5 6 5 4 4 5
13 13 13 13 15 15 16 16 16 16 16 16 17 18 18 18 18 18 17 16 15 17 18 18 18 18 18 19 18 18 18 18 17 16 16 16 15 15 15 14 13 14 15 15 15 15 13 12 12 13 12 11 11 11 11 11 10 11 11 12 12 12 11 8 8 9 8 8 7 7 7 6 7 7 7 6 6 7 5 5 4 3 3 4 5
12 13 13 15 16 16 17 17 17 17 16 17 16 16 15 16 16 16 16 18 18 18 18 18 18 19 19 18 17 16 16 16 17 16 16 16 16 15 15 13 13 14 13 14 14 13 12 12 11 11 11 10 11 11 10 11 11 12 12 13 13 13 11 10 9 8 7 7 7 7 7 8 8 9 10 9 8 7 6 5 3 3 3 5 4
12 13 13 13 14 14 15 16 16 16 17 16 15 16 17 18 17 18 18 18 17 18 18 19 20 20 18 18 17 16 16 16 16 17 17 17 16 15 14 14 14 15 14 13 12 12 12 12 12 11 10 10 10 9 13 19 17 14 12 10 11 11 10 10 9 7 6 7 8 8 8 12 13 13 12 11 10 9 8 6 5 5 5 5 5
18 17 17 17 17 16 15 14 15 16 17 17 17 17 17 18 18 18 19 18 18 18 19 19 20 18 17 17 16 16 16 17 17 17 16 16 16 15 14 14 14 14 14 13 12 12 12 12 13 12 12 11 11 11 17 19 20 18 13 12 12 12 11 10 10 9 8 7 7 8 7 9 10 10 9 11 10 9 8 7 8 8 8 7 6
18 18 17 15 14 13 14 15 15 17 18 17 16 16 17 18 18 19 19 18 18 19 20 19 19 17 17 18 17 17 17 18 17 17 17 17 15 15 15 14 14 14 12 11 12 13 13 12 12 12 13 12 12 15 19 19 18 18 17 14 13 11 10 10 9 9 9 8 8 8 7 7 7 6 5 6 8 9 9 9 9 9 10 10 10
12 11 12 13 14 15 17 17 17 17 16 17 18 17 17 19 19 19 17 17 19 19 19 19 18 17 18 18 17 17 18 17 18 18 16 15 15 15 15 14 15 13 10 12 12 12 12 12 12 14 14 13 12 16 17 18 19 21 22 18 11 9 8 9 9 9 9 9 8 8 8 6 6 10 7 5 5 5 7 8 8 8 9 11 11
9 12 15 15 13 12 14 16 17 17 19 19 18 19 20 19 20 17 18 18 19 18 18 18 17 18 18 18 18 18 18 18 17 16 15 15 15 17 15 13 11 11 11 11 12 13 12 12 13 13 13 12 12 12 17 19 20 22 22 18 9 10 11 10 11 10 9 10 11 10 9 8 6 7 7 7 5 5 5 4 4 4 5 7 8
14 12 9 10 14 15 16 16 16 17 17 16 16 16 16 15 14 15 16 18 18 19 18 17 18 18 17 17 18 18 19 18 16 15 15 15 16 15 13 12 11 12 12 13 13 13 13 13 12 12 11 11 9 14 18 19 20 20 21 18 11 9 8 8 9 10 11 12 11 10 10 9 7 6 6 7 6 5 4 3 3 4 5 5 3
13 15 15 16 16 18 18 17 16 14 14 15 17 17 16 16 16 17 17 18 18 18 18 17 18 18 18 18 18 18 18 16 16 15 15 16 15 14 14 11 10 10 10 11 10 11 13 13 12 11 9 9 7 16 18 19 19 20 20 12 8 8 9 9 9 10 11 10 10 9 8 8 8 7 7 10 8 5 3 3 3 4 4 3 3
15 15 19 21 21 18 16 15 15 15 16 16 17 17 17 17 16 16 17 17 17 17 18 18 19 19 19 18 18 18 17 17 16 16 16 16 15 14 12 10 11 11 12 12 13 13 11 10 10 9 10 7 6 13 18 20 20 19 12 9 9 8 8 10 11 11 10 10 10 10 9 8 7 7 9 10 9 6 3 3 3 3 4 4 6
6 6 6 5 5 7 11 11 12 13 15 15 16 16 16 15 16 16 16 16 17 18 18 18 19 19 19 18 18 18 17 16 15 16 17 15 13 11 12 11 13 13 13 14 11 9 8 10 11 11 10 9 8 12 18 18 18 18 17 12 10 9 8 8 7 7 8 8 8 13 10 7 8 7 9 10 8 6 4 4 3 4 5 5 6
5 10 12 10 11 13 12 10 10 13 15 15 15 16 15 16 16 17 17 18 18 19 18 19 19 19 19 18 17 17 16 16 16 16 15 14 14 14 12 11 12 12 11 8 9 9 8 8 9 9 12 12 8 10 16 19 20 20 17 10 10 9 9 8 8 8 7 7 7 8 10 9 9 8 11 10 9 7 5 4 4 3 5 6 6
5 7 6 9 14 11 9 12 13 14 14 15 14 13 14 15 16 16 18 19 20 20 20 20 19 17 15 15 15 16 16 16 16 15 13 14 12 11 12 12 10 9 9 9 9 9 10 8 7 8 9 9 9 7 11 14 17 18 17 10 8 9 9 9 9 9 8 6 6 6 10 12 12 11 10 9 8 9 5 4 3 4 5 8 1
11 10 5 1 6 9 16 17 15 16 16 16 15 14 15 16 16 15 18 19 19 19 19 19 17 15 14 15 15 16 17 15 14 14 13 12 11 12 12 11 10 9 9 9 9 7 8 7 6 7 7 6 7 9 8 14 15 17 16 14 9 10 9 10 9 9 9 9 7 7 6 9 11 10 10 8 8 9 7 5 5 6 5 1 3
8 9 10 7 1 4 7 11 14 17 16 11 10 13 15 16 15 17 19 18 18 18 18 16 14 14 16 16 16 14 15 13 13 13 13 13 11 12 12 12 10 10 11 10 8 8 7 7 5 5 5 6 5 9 9 11 15 16 15 15 10 9 10 10 9 8 7 7 8 7 6 8 11 10 8 8 9 9 9 5 6 6 4 5 2
13 14 14 10 6 1 1 2 3 5 5 5 2 8 13 14 17 19 18 17 16 15 14 13 12 14 15 15 15 16 15 12 13 16 17 14 12 12 11 11 12 11 11 11 9 8 8 7 6 4 3 4 5 5 10 11 13 15 15 14 13 10 12 10 10 9 9 8 6 7 7 9 10 9 9 10 10 10 7 6 7 5 5 4 4
7 7 10 10 6 5 5 4 5 6 3 4 8 3 4 6 6 7 7 8 9 11 12 11 11 12 13 13 14 16 15 14 15 15 15 15 13 12 11 11 12 12 11 10 8 8 8 8 7 5 4 4 3 4 7 12 12 13 14 13 13 14 14 8 8 8 7 7 7 6 7 10 11 11 11 10 9 8 6 6 5 6 6 6 3
9 8 6 6 7 6 6 7 7 3 6 6 5 3 2 4 1 4 3 3 3 4 10 12 13 13 13 13 14 14 14 14 15 16 15 13 13 13 11 9 11 10 10 9 8 8 9 8 7 7 5 4 5 5 6 8 13 13 12 12 13 14 13 12 7 5 6 7 7 10 11 11 11 10 9 8 6 6 5 5 7 7 7 3 4
11 12 12 8 5 6 7 6 7 9 8 5 5 6 3 1 5 6 4 2 4 4 5 9 11 12 13 14 15 13 13 12 11 8 10 10 11 10 10 8 9 8 7 9 9 8 8 8 7 6 6 6 5 6 6 6 7 8 7 10 13 12 10 9 7 6 7 9 10 10 11 10 9 8 6 4 4 4 5 5 5 6 4 5 4
13 12 10 11 10 10 10 10 10 8 6 6 7 6 4 4 6 5 6 8 7 3 1 3 7 9 10 12 14 12 12 12 12 12 12 11 10 11 11 10 8 7 6 7 8 8 8 7 8 7 6 6 6 6 7 6 6 6 6 6 7 7 8 10 8 6 8 6 7 7 6 7 7 7 5 3 2 3 2 3 4 5 5 5 4
9 9 8 8 9 9 9 10 9 7 6 7 7 7 6 5 5 9 11 12 10 9 7 7 6 8 9 11 13 20 19 14 13 14 14 13 11 10 10 10 12 12 10 9 9 9 9 9 9 8 7 7 7 6 7 8 8 7 6 6 6 6 6 6 7 5 6 7 7 8 9 6 5 4 1 1 1 2 3 4 5 5 5 4 3
11 10 7 6 5 8 7 9 8 5 5 7 7 6 5 7 7 10 14 15 16 18 17 13 8 9 11 12 13 12 13 15 14 11 7 5 10 12 10 6 2 5 9 10 9 8 9 8 9 10 10 8 7 8 9 9 11 12 11 9 8 7 6 6 8 11 8 6 6 6 5 5 4 5 4 4 3 3 4 5 4 5 5 4 3
11 9 8 6 6 6 6 7 6 4 6 8 8 6 5 5 7 9 14 17 18 20 21 20 16 11 11 11 13 13 13 13 15 14 14 11 15 15 8 8 6 2 3 10 13 11 10 9 9 8 9 12 12 9 12 16 15 15 14 14 10 10 10 8 11 13 9 6 5 6 6 6 6 5 5 5 5 5 5 5 6 5 4 4 4
12 12 10 6 4 4 5 6 5 4 4 6 7 8 8 7 7 8 13 14 11 7 8 13 14 13 14 12 12 14 14 11 11 12 12 13 10 11 16 14 9 6 5 9 8 11 14 11 9 8 5 7 9 12 16 16 16 16 16 14 14 14 14 15 14 9 5 6 5 6 6 5 5 5 5 6 5 5 6 6 6 5 5 5 5
Wind_Direction
190 188 189 187 183 179 179 178 179 180 178 179 180 185 184 184 182 184 181 180 180 181 183 181 184 185 188 189 194 193 189 191 190 184 190 190 187 184 182 184 181 173 170 165 170 170 161 163 163 169 163 160 162 182 194 198 197 190 194 193 162 176 268 259 231 110 75 339 332 330 340 307 235 196 12 63 69 126 135 121 139 149 149 140 168
183 182 187 186 185 183 178 179 177 180 187 181 183 185 184 182 185 182 180 182 184 184 183 186 189 188 183 187 182 183 184 187 194 194 188 192 185 185 184 185 183 178 172 171 170 169 164 164 168 169 167 171 180 187 194 202 192 191 175 151 206 153 216 215 200 117 11 166 152 323 341 334 318 30 39 94 135 112 119 130 157 152 153 163 168
185 187 184 187 186 184 183 181 184 184 184 185 184 179 184 184 185 181 182 182 186 183 180 187 190 187 181 178 176 176 198 191 187 188 181 182 190 186 183 182 178 179 177 174 167 174 172 164 171 166 172 172 173 194 200 206 201 194 181 166 140 0 252 281 172 175 162 190 116 74 347 21 331 2 338 55 154 133 113 137 158 152 162 171 160
187 187 186 186 187 186 187 186 186 183 183 184 183 185 185 186 184 183 182 182 184 185 182 182 184 184 182 168 172 169 178 187 191 176 171 166 187 188 182 178 182 181 177 174 175 176 171 169 165 171 179 178 177 186 196 207 196 192 183 181 124 117 264 283 207 207 136 123 22 135 207 112 11 320 318 299 252 137 140 164 158 153 153 124 115
188 188 184 184 187 189 189 190 181 183 186 186 187 188 189 188 183 180 179 182 182 182 182 173 169 163 153 144 151 146 107 168 183 208 193 179 179 187 191 182 182 178 178 180 179 175 172 168 172 182 180 183 178 185 190 198 190 186 180 153 146 148 190 264 346 222 172 170 138 78 21 22 211 237 79 345 40 117 147 156 159 143 146 158 161
185 187 185 184 188 190 190 187 185 186 188 189 188 191 188 186 179 176 178 180 182 181 178 174 175 170 164 167 179 190 194 190 199 200 201 190 190 186 185 184 179 177 181 181 176 169 173 176 181 181 183 184 181 185 186 181 183 167 185 161 179 181 144 92 175 46 37 262 166 167 161 177 181 235 89 135 339 359 148 162 172 155 159 161 168
193 190 188 183 185 186 188 189 190 190 191 188 187 188 188 183 180 175 177 180 179 179 177 177 177 180 181 184 188 193 198 210 202 200 201 197 166 178 184 183 180 176 182 179 177 175 174 180 182 183 184 180 178 170 180 189 191 188 156 143 176 153 117 115 168 200 23 337 288 46 139 132 142 116 188 89 79 330 3 196 206 83 181 158 170
189 193 193 189 185 186 188 191 191 194 190 185 187 186 186 185 180 179 176 177 180 177 179 180 181 182 184 187 191 197 200 203 199 202 198 175 169 175 174 180 181 185 178 181 181 178 179 182 180 180 179 179 173 179 192 193 189 144 159 173 165 149 136 141 165 167 150 238 292 309 332 63 112 130 133 156 155 153 234 311 24 93 227 186 178
189 190 193 193 190 191 190 189 193 191 184 185 188 188 188 186 184 179 175 175 178 179 180 185 183 182 184 185 193 203 201 202 199 197 191 182 172 168 171 174 181 187 185 183 186 184 185 183 175 176 177 181 188 185 195 171 185 157 152 159 159 154 150 155 136 181 163 189 121 343 44 322 27 69 104 100 130 120 237 199 201 11 0 288 254
192 192 192 193 194 192 191 192 190 188 186 185 186 185 186 185 185 182 179 175 177 181 183 185 186 182 183 187 192 197 198 192 181 190 193 182 178 173 172 173 182 187 191 191 188 187 184 178 175 178 183 185 188 188 171 161 173 165 171 176 168 158 168 152 165 183 186 170 162 165 129 99 50 22 42 90 61 100 162 212 204 155 167 246 232
193 195 195 195 196 194 191 190 192 190 187 184 184 184 183 183 185 185 185 177 176 181 183 185 186 187 189 188 191 194 195 186 180 190 187 183 180 178 177 183 183 189 190 196 192 186 180 181 180 183 187 186 189 172 177 168 175 171 177 174 172 164 171 168 166 180 174 168 167 163 178 167 173 170 207 201 142 121 79 163 241 205 173 192 232
192 193 196 198 196 197 191 193 192 190 186 185 185 183 182 184 183 185 185 181 176 180 184 186 187 192 193 190 192 194 191 189 188 187 186 187 184 179 180 177 188 192 193 191 193 189 179 182 184 181 187 188 194 177 183 176 174 175 171 177 179 176 167 163 161 179 180 180 181 177 176 179 176 169 193 173 166 186 148 184 180 173 39 243 228
189 193 194 193 193 194 195 195 191 190 189 188 187 185 184 184 183 183 187 185 180 177 183 186 188 193 194 193 194 193 193 193 192 190 188 188 182 177 177 188 185 190 197 192 194 189 184 176 179 182 189 193 198 174 184 182 170 176 178 178 176 175 179 171 168 183 181 180 192 202 171 179 205 205 152 177 190 154 145 146 237 143 161 213 256
190 191 192 191 193 195 195 192 190 191 191 189 188 186 184 185 185 185 187 184 183 181 181 184 191 194 195 195 196 193 195 194 194 193 191 189 181 182 185 188 188 193 192 195 188 185 186 184 181 183 186 191 197 188 181 187 175 177 178 175 183 188 178 175 182 190 192 202 171 162 193 194 209 185 186 171 169 147 156 153 168 240 133 196 281
190 191 192 192 194 194 194 192 190 191 191 189 188 188 185 186 186 187 184 185 184 185 183 185 189 193 196 198 198 196 197 196 197 196 192 188 184 185 192 189 190 193 193 192 180 182 184 184 184 182 183 188 196 194 187 184 183 177 178 185 185 179 183 183 194 190 199 210 195 175 187 181 180 184 169 179 171 177 164 165 148 142 84 354 238
191 192 194 195 195 195 193 191 191 191 190 189 189 187 187 188 188 187 185 184 185 185 187 186 187 189 195 198 200 199 198 197 198 198 198 191 187 190 193 191 193 190 191 180 184 180 181 184 187 190 186 187 192 189 184 179 178 177 182 183 188 179 181 190 198 192 202 204 207 194 183 198 190 183 175 168 176 174 162 154 148 153 154 213 323
191 192 194 196 198 195 193 192 191 190 188 191 190 188 187 185 186 188 187 184 185 186 186 186 186 188 195 199 200 201 199 196 196 197 196 192 191 196 193 192 190 187 185 184 180 183 183 183 188 192 192 193 192 188 179 179 175 178 181 184 190 185 181 195 197 196 207 203 215 192 194 191 202 183 174 168 165 150 159 164 162 163 167 149 174
190 192 193 194 194 194 194 194 191 189 191 192 190 188 185 185 184 185 184 185 187 186 186 185 185 190 194 199 202 202 200 199 197 197 193 191 195 197 191 187 190 187 184 184 182 182 185 186 188 193 195 193 195 190 180 178 170 179 183 185 188 179 189 200 204 198 209 206 212 206 207 198 208 181 184 185 164 168 166 175 177 173 156 167 175
189 193 195 197 195 195 194 194 193 192 192 190 187 183 184 186 186 185 185 187 185 185 185 186 186 189 194 198 201 202 202 200 200 197 192 196 197 195 191 189 187 187 184 184 185 186 186 191 189 193 195 193 191 191 181 177 174 176 181 184 186 181 189 199 209 199 209 200 216 218 212 218 194 193 180 180 181 170 181 177 180 159 174 164 168
192 193 195 196 197 197 195 192 191 191 190 189 183 183 185 186 185 188 189 187 184 184 183 185 188 189 194 196 201 202 200 199 199 195 197 202 201 195 191 188 190 187 189 185 187 188 189 191 193 191 193 194 191 192 183 180 180 181 178 182 186 182 191 198 206 208 205 202 209 216 212 208 203 189 193 186 186 195 181 174 172 172 185 177 152
195 195 195 196 200 198 195 192 191 189 186 182 182 185 187 185 187 185 185 185 186 186 184 186 184 190 190 194 198 199 199 198 200 199 201 205 203 198 195 192 184 193 188 189 190 191 191 193 193 193 192 193 193 191 189 181 183 186 185 185 179 184 191 200 197 208 211 205 207 209 213 209 184 185 194 189 181 192 179 172 168 162 179 179 149
195 195 195 198 196 195 194 193 189 181 179 183 186 185 184 188 188 186 186 187 186 186 186 184 186 188 191 194 196 196 195 196 200 200 203 206 205 200 196 188 193 194 191 192 192 191 191 192 194 195 194 194 193 190 188 185 187 188 191 190 186 186 192 198 197 206 209 209 202 204 212 210 183 184 187 189 192 171 171 173 175 172 183 195 195
196 196 198 195 193 192 189 187 183 183 184 184 182 184 188 189 186 187 188 189 186 186 185 184 186 188 192 193 192 194 193 196 200 201 205 206 205 200 194 193 194 195 195 195 193 191 189 191 195 196 195 196 193 192 190 188 191 191 192 194 194 193 195 197 202 209 207 200 202 206 208 200 185 197 210 208 188 181 181 182 189 182 186 201 199
197 198 197 194 193 186 178 180 182 182 180 181 185 189 189 188 189 188 190 186 186 185 184 185 187 191 191 190 192 192 192 196 201 203 206 207 203 200 195 197 195 193 196 198 195 193 189 193 196 196 197 196 193 195 192 194 194 193 194 196 197 199 202 205 208 209 202 195 205 208 212 197 192 201 208 209 196 181 182 191 195 198 193 196 200
198 199 200 197 182 171 179 182 182 181 181 181 184 187 187 190 189 189 190 185 185 183 184 186 188 190 190 191 192 190 193 197 201 203 207 206 204 200 198 199 195 198 196 194 197 194 194 195 198 197 196 196 196 193 195 197 198 197 196 196 198 200 205 210 214 208 192 195 205 209 198 189 187 202 206 195 189 185 187 184 202 202 199 203 196
201 202 198 182 173 180 182 182 182 180 179 182 185 187 189 190 192 189 183 183 185 184 185 186 189 189 192 193 192 191 195 198 201 204 206 205 204 203 200 200 199 199 194 196 195 197 199 199 199 197 196 197 196 196 197 197 197 195 196 196 199 204 209 214 212 196 195 197 200 196 189 185 185 191 196 191 186 199 194 195 208 212 208 200 202
199 196 188 174 173 180 181 182 184 184 182 182 183 186 189 190 189 186 185 183 184 183 185 187 189 191 192 194 193 194 195 197 201 204 204 203 204 204 201 202 199 199 196 196 199 199 202 200 199 195 197 197 197 197 198 197 194 191 192 195 200 207 212 212 201 198 200 197 191 187 186 181 183 186 184 190 191 199 199 208 210 210 207 196 210
193 190 179 178 183 181 179 184 185 186 184 184 185 186 188 186 188 187 183 182 184 185 186 188 188 192 194 195 196 196 195 197 200 203 203 203 204 204 205 203 197 199 200 199 198 200 200 199 200 200 199 194 195 197 197 194 191 189 190 198 201 207 210 203 200 204 199 197 188 184 186 185 187 189 190 192 185 195 192 208 217 213 216 209 217
190 192 189 188 185 183 182 183 186 184 183 184 186 189 188 189 189 185 183 187 184 186 187 188 190 194 195 195 196 197 197 197 198 201 202 204 204 206 205 201 200 202 202 202 200 197 196 200 201 201 198 193 193 196 194 190 189 192 194 197 202 209 205 203 202 199 192 190 186 185 186 190 189 191 190 185 192 186 178 196 212 188 204 206 217
193 196 193 192 192 188 183 180 182 182 183 183 186 187 188 188 189 187 188 187 181 188 188 190 194 196 194 193 195 196 196 196 197 200 203 203 203 204 203 202 202 202 203 200 198 195 196 197 197 199 197 197 200 199 195 190 190 191 190 194 203 210 208 204 200 187 182 188 186 184 189 185 187 190 186 189 194 192 187 180 183 176 181 184 189
193 195 193 192 188 186 182 180 181 184 184 184 186 188 189 191 189 188 189 185 184 188 192 194 198 196 192 192 193 197 195 197 199 201 202 201 203 203 203 203 202 201 201 197 193 193 196 197 196 196 197 201 204 204 192 190 193 184 181 194 202 207 205 199 195 190 187 185 182 180 177 178 178 190 189 196 191 188 183 180 178 184 183 180 182
192 193 193 189 185 181 175 180 184 186 187 188 188 188 188 193 191 191 190 184 186 189 193 197 198 192 191 193 196 195 196 200 198 201 201 201 201 202 204 203 202 200 198 192 193 195 196 195 198 199 201 203 207 202 192 191 182 182 188 196 205 205 197 199 190 181 185 180 172 168 166 170 186 188 175 166 172 180 184 188 192 200 206 207 198
189 183 185 184 185 183 182 186 187 189 189 192 188 187 192 194 193 194 185 184 190 192 194 197 195 192 193 195 195 195 199 199 200 201 200 197 198 203 205 202 203 199 191 193 196 192 195 195 197 200 204 206 210 201 188 179 183 187 194 199 203 195 190 199 186 182 175 169 169 168 168 186 186 181 167 170 169 183 199 205 214 223 229 228 230
196 191 185 186 186 184 188 187 188 191 192 193 189 191 197 196 194 188 183 188 191 194 194 196 194 195 195 195 194 197 199 201 200 198 195 196 198 204 204 201 197 193 194 195 196 197 196 197 199 201 204 206 211 181 178 182 187 191 196 199 194 188 195 194 186 176 173 172 173 171 176 191 189 175 165 168 171 181 191 205 223 230 238 248 246
185 191 198 196 189 190 193 196 196 194 194 192 194 197 197 194 189 186 191 191 193 193 195 196 195 197 196 195 196 197 200 201 198 195 194 197 200 202 199 196 192 192 193 195 197 199 201 202 200 199 202 203 204 167 176 183 188 192 198 198 195 191 183 183 181 178 177 178 178 175 184 181 170 167 171 169 170 185 189 212 230 245 244 247 251
189 186 193 195 199 197 194 198 198 195 194 191 193 195 192 194 189 190 192 194 194 195 196 195 197 198 198 197 196 198 199 197 195 193 194 197 197 196 196 190 188 192 195 196 199 199 202 201 199 195 193 196 177 165 174 181 187 196 196 194 184 175 180 180 180 182 182 176 168 174 177 171 168 168 178 176 180 176 183 211 239 262 282 291 274
197 198 198 196 194 198 202 195 192 191 191 195 199 194 193 191 190 193 193 196 196 197 198 196 198 198 198 197 196 196 196 194 193 192 195 195 193 193 191 182 188 190 192 195 199 201 196 189 186 185 183 174 157 175 176 183 189 188 174 186 187 184 183 185 186 180 172 169 173 181 174 161 160 170 181 186 197 172 175 209 238 266 274 288 280
200 219 225 244 256 232 211 199 187 189 193 198 198 193 192 191 192 192 193 198 198 201 201 199 200 199 198 196 195 194 193 192 190 193 194 193 190 187 187 182 188 189 193 196 192 181 176 178 177 177 173 162 172 183 180 181 181 176 179 182 182 176 178 175 170 162 159 164 174 174 156 158 168 177 179 187 194 180 191 209 224 246 269 272 273
264 201 205 217 213 204 210 207 197 195 198 195 193 191 190 194 193 192 193 196 200 203 202 202 203 200 197 194 193 192 191 190 191 193 189 185 186 186 183 182 190 187 185 173 164 164 161 166 170 165 161 163 173 182 185 182 180 180 181 179 173 170 164 165 157 161 166 155 163 150 166 184 169 169 174 188 186 179 191 206 213 220 255 262 264
48 360 298 232 203 202 205 200 200 206 201 193 188 186 191 196 198 195 195 198 201 203 203 204 203 199 195 191 190 191 190 189 190 185 183 185 181 177 177 181 177 167 160 161 157 155 156 157 153 152 164 167 161 165 182 182 180 178 177 162 161 161 169 167 166 157 154 153 159 161 185 168 161 170 184 184 179 177 184 198 174 208 236 256 261
358 353 351 343 284 216 193 196 205 210 203 195 189 187 192 197 196 196 202 204 203 204 205 205 200 190 188 190 190 190 189 188 183 180 178 175 173 174 169 165 155 149 147 146 148 144 138 140 145 149 150 154 160 160 168 170 175 175 171 158 169 170 166 162 163 162 156 157 167 173 177 170 174 184 188 176 166 182 191 180 186 211 224 150 100
357 349 3 350 202 229 250 226 206 202 201 201 196 194 196 196 196 203 208 207 205 205 206 204 190 187 187 186 187 188 184 179 174 169 170 173 172 165 163 157 148 146 144 139 133 133 129 129 125 136 149 145 144 147 148 174 173 172 168 163 162 170 162 156 154 152 153 159 168 172 178 186 182 187 178 164 170 175 188 184 208 207 133 129 183
355 354 349 356 3 15 243 331 1 21 17 356 272 215 207 203 201 207 209 208 207 204 202 197 187 186 185 183 181 176 174 174 173 170 166 165 161 155 150 145 140 137 136 137 139 135 131 129 124 109 101 108 114 124 154 159 172 165 165 165 157 150 156 156 154 158 169 171 165 172 180 181 184 172 165 171 169 171 167 203 199 162 162 189 220
6 348 331 337 1 14 37 62 38 23 31 100 110 92 25 357 311 300 279 246 210 195 190 183 182 182 179 176 173 171 170 168 165 164 160 156 155 148 144 144 142 139 137 135 136 135 134 138 139 127 98 95 109 120 156 154 155 165 162 154 145 147 152 160 158 163 166 159 160 170 175 170 164 164 168 167 167 170 194 195 164 166 186 204 219
356 351 357 342 356 7 11 12 13 57 105 85 51 80 126 149 130 96 61 330 293 207 173 175 176 177 173 170 164 163 162 160 161 159 155 148 144 141 135 138 131 123 125 131 139 142 142 141 136 141 135 129 129 133 139 152 153 154 149 146 147 151 156 149 153 156 151 162 164 154 148 153 160 159 152 152 163 193 191 151 173 194 202 203 209
2 4 5 11 8 31 37 35 23 11 6 29 83 111 109 54 354 18 60 92 142 158 185 179 176 169 165 157 155 149 146 143 134 128 126 126 129 125 111 95 91 102 129 140 139 136 136 139 143 144 151 149 142 136 139 142 154 139 135 144 148 150 151 151 127 119 132 134 138 137 139 136 128 130 133 160 185 192 190 198 198 207 218 216 207
5 356 359 13 20 34 37 38 30 10 30 44 46 43 90 139 120 114 91 70 32 30 92 158 157 154 146 143 134 127 105 89 86 88 88 88 81 87 102 114 125 137 153 150 139 136 137 143 152 160 149 145 146 143 142 145 149 150 148 136 125 124 114 106 99 110 106 106 119 127 124 118 109 132 119 119 142 156 152 200 212 211 220 219 210
8 5 6 13 30 41 43 46 39 21 27 47 58 61 65 74 91 113 117 108 97 77 46 12 38 77 89 97 101 105 108 109 105 111 116 118 124 142 151 153 158 160 161 156 150 148 156 163 164 158 149 146 152 150 157 161 165 168 166 153 153 145 143 137 118 122 118 124 120 104 101 99 108 115 93 83 184 199 191 192 210 211 221 220 213
14 12 14 40 47 53 57 61 55 43 59 65 65 66 72 94 112 123 119 114 113 108 105 98 82 92 98 107 110 112 115 114 116 105 81 89 146 148 130 114 126 170 157 149 154 159 167 170 162 158 156 158 157 176 184 173 175 177 168 165 170 167 155 147 144 132 112 100 100 102 99 112 136 156 175 203 217 221 224 210 209 205 213 210 203
10 14 22 44 48 48 53 52 49 66 93 99 103 105 102 108 115 122 127 131 136 137 138 138 140 135 127 125 124 123 116 118 120 118 115 86 49 51 68 128 151 28 126 162 159 168 168 161 160 167 170 168 177 178 155 165 172 173 175 172 165 151 153 141 147 142 126 122 130 138 158 158 163 169 184 206 220 220 227 224 225 218 209 212 209
15 22 22 35 40 44 45 44 30 39 88 117 122 119 108 100 90 101 111 111 101 85 109 126 133 140 142 150 135 127 127 124 120 125 120 117 106 57 51 46 46 49 104 130 132 134 150 159 149 152 125 91 117 133 153 166 166 172 170 167 160 156 147 142 145 128 113 136 146 155 168 176 174 172 193 213 222 219 227 227 233 214 216 217 216